• Join FlightAware (Why Join?)
  • Login
  • US Flag 
04:18PM EST


 

Airport Tracker/Info


-or-


 

Live Flight TrackerFlight Track Log ✈ CPZ5718 ✈ 19-Jun-2013 ✈ KALB - KMSP

Flight Track Log - Related Links

Times and Time Zones

All times are in EDT time to prevent confusion due to time zone crossing. See the CPZ5718 flight status page for this flight to view local times or setup timezone preferences in your user account.

Time Position Orientation Groundspeed Altitude Reporting Facility
EDT Latitude Longitude Course Direction KTS MPH feet Rate Location/Type
06:40AM 42.7653 -73.8061 281° West 143 165 1,100  Level Boston Center
06:41AM 42.8003 -73.8381 326° Northwest 190 219 2,600 2,280 Climbing Boston Center
06:42AM 42.8453 -73.9125 310° West 267 307 5,600 3,060 Climbing Boston Center
06:43AM 42.8363 -74.3512 283° West  Level FlightAware Approximate
06:43AM 42.8697 -73.9417 319° Northwest 266 306 7,300  Level Boston Center
06:44AM 42.8597 -74.4916 283° West  Level FlightAware Approximate
06:44AM 42.9169 -74.0050 316° Northwest 266 306 9,700  Level Boston Center
06:45AM 42.8932 -74.6217 281° West  Level FlightAware Approximate
06:45AM 42.9783 -74.0861 316° Northwest 279 321 11,700  Level Boston Center
06:46AM 43.0167 -74.1781 300° West 293 337 13,900 1,800 Climbing Boston Center
06:47AM 43.0267 -74.3203 276° West 329 379 15,300 1,680 Climbing Boston Center
06:48AM 43.0372 -74.4456 277° West 363 418 17,300 1,980 Climbing Boston Center
06:49AM 43.0489 -74.6050 276° West 385 443 19,300 1,920 Climbing Boston Center
06:50AM 43.0606 -74.7533 276° West 391 450 21,200 1,500 Climbing Boston Center
06:51AM 43.0703 -74.8844 276° West 391 450 22,300 1,200 Climbing Boston Center
06:52AM 43.0814 -75.0383 276° West 403 464 23,700 1,320 Climbing Boston Center
06:53AM 43.0925 -75.1953 276° West 409 471 25,000 1,200 Climbing Boston Center
06:54AM 43.1050 -75.3550 276° West 415 478 26,200 1,020 Climbing Boston Center
06:55AM 43.1197 -75.5153 277° West 425 489 27,100 900 Climbing Boston Center
06:56AM 43.1464 -75.6758 283° West 430 495 28,000 780 Climbing Boston Center
06:57AM 43.1731 -75.8367 283° West 430 495 28,700 1,020 Climbing Boston Center
06:58AM 43.2014 -75.9981 284° West 430 495 30,100 1,200 Climbing Boston Center
06:59AM 43.2278 -76.1506 283° West 430 495 31,100 960 Climbing Boston Center
07:00AM 43.2667 -76.4089 282° West 433 498 32,800 900 Climbing Cleveland Center
07:01AM 43.2950 -76.5611 284° West 421 484 33,600 900 Climbing Cleveland Center
07:02AM 43.3208 -76.7078 284° West 415 478 34,600 960 Climbing Cleveland Center
07:03AM 43.3422 -76.8550 281° West 405 466 35,600 660 Climbing Cleveland Center
07:04AM 43.3675 -76.9992 284° West 400 460 36,000 180 Climbing Cleveland Center
07:05AM 43.3867 -77.1439 280° West 394 453 36,000  Level Cleveland Center
07:06AM 43.4119 -77.2967 283° West 394 453 36,000  Level Cleveland Center
07:07AM 43.4333 -77.4000 286° West 420 483 36,000  Level Toronto Center
07:08AM 43.4500 -77.5833 277° West 420 483 36,000  Level Toronto Center
07:09AM 43.4667 -77.7333 279° West 420 483 36,000  Level Toronto Center
07:10AM 43.5000 -77.8833 287° West 420 483 36,000  Level Toronto Center
07:11AM 43.5167 -78.0500 278° West 420 483 36,000  Level Toronto Center
07:12AM 43.5536 -78.2458 285° West 430 495 36,000  Level Cleveland Center
07:13AM 43.5775 -78.4056 282° West 430 495 36,000  Level Cleveland Center
07:14AM 43.6014 -78.5625 282° West 430 495 36,000  Level Cleveland Center
07:15AM 43.6167 -78.6833 280° West 430 495 36,000  Level Toronto Center
07:16AM 43.6333 -78.8500 278° West 430 495 36,000  Level Toronto Center
07:17AM 43.6667 -79.0167 286° West 430 495 36,000  Level Toronto Center
07:18AM 43.6833 -79.1667 279° West 430 495 36,000  Level Toronto Center
07:19AM 43.7000 -79.3333 278° West 430 495 36,000  Level Toronto Center
07:20AM 43.7167 -79.5000 278° West 420 483 36,000  Level Toronto Center
07:21AM 43.7500 -79.6500 287° West 430 495 36,000  Level Toronto Center
07:22AM 43.7667 -79.8167 278° West 430 495 36,000  Level Toronto Center
07:23AM 43.7833 -79.9833 278° West 430 495 36,000  Level Toronto Center
07:24AM 43.8167 -80.1333 287° West 430 495 36,000  Level Toronto Center
07:25AM 43.8333 -80.3000 278° West 420 483 36,000  Level Toronto Center
07:26AM 43.8500 -80.4667 278° West 420 483 36,000  Level Toronto Center
07:27AM 43.8667 -80.6333 278° West 420 483 36,000  Level Toronto Center
07:28AM 43.9000 -80.7833 287° West 420 483 36,000  Level Toronto Center
07:29AM 43.9000 -80.9500 270° West 420 483 36,000  Level Toronto Center
07:30AM 43.9167 -81.1167 278° West 420 483 36,000  Level Toronto Center
07:31AM 43.9333 -81.2833 278° West 420 483 36,000  Level Toronto Center
07:32AM 43.9667 -81.4333 287° West 420 483 36,000  Level Toronto Center
07:33AM 43.9833 -81.5833 279° West 420 483 36,000  Level Toronto Center
07:34AM 44.0000 -81.7500 278° West 420 483 36,000  Level Toronto Center
07:35AM 44.0167 -81.9000 279° West 420 483 36,000  Level Toronto Center
07:36AM 44.0333 -82.0667 278° West 420 483 36,000  Level Toronto Center
07:37AM 44.0500 -82.2333 278° West 420 483 36,000  Level Toronto Center
07:38AM 44.0667 -82.4000 278° West 420 483 36,000  Level Toronto Center
07:39AM 44.1000 -82.5500 287° West 420 483 36,000  Level Toronto Center
07:40AM 44.1078 -82.6800 275° West 423 487 36,000  Level Minneapolis Center
07:41AM 44.1258 -82.8422 279° West 424 488 36,000  Level Minneapolis Center
07:42AM 44.1417 -83.0064 278° West 427 491 36,000  Level Minneapolis Center
07:43AM 44.1586 -83.1683 278° West 426 490 36,000  Level Minneapolis Center
07:44AM 44.1758 -83.3311 278° West 425 489 36,000  Level Minneapolis Center
07:45AM 44.1917 -83.4944 278° West 427 491 36,000  Level Minneapolis Center
07:46AM 44.2078 -83.6561 278° West 425 489 36,000  Level Minneapolis Center
07:47AM 44.2236 -83.8175 278° West 422 486 36,000  Level Minneapolis Center
07:48AM 44.2383 -83.9769 277° West 418 481 36,000  Level Minneapolis Center
07:49AM 44.2567 -84.1661 278° West 412 474 36,000  Level Minneapolis Center
07:50AM 44.2711 -84.3233 277° West 410 472 36,000  Level Minneapolis Center
07:51AM 44.2839 -84.4817 276° West 411 473 36,000  Level Minneapolis Center
07:52AM 44.3000 -84.6408 278° West 414 476 36,000  Level Minneapolis Center
07:53AM 44.3139 -84.8000 277° West 415 478 36,000  Level Minneapolis Center
07:54AM 44.3264 -84.9581 276° West 412 474 36,000  Level Minneapolis Center
07:55AM 44.3408 -85.1169 277° West 413 475 36,000  Level Minneapolis Center
07:56AM 44.3533 -85.2747 276° West 410 472 36,000  Level Minneapolis Center
07:57AM 44.3658 -85.4333 276° West 410 472 36,000  Level Minneapolis Center
07:58AM 44.3786 -85.5906 277° West 409 471 36,000  Level Minneapolis Center
07:59AM 44.3936 -85.7794 276° West 405 466 36,000  Level Minneapolis Center
08:00AM 44.4056 -85.9361 276° West 404 465 36,000  Level Minneapolis Center
08:01AM 44.4178 -86.0922 276° West 403 464 36,000  Level Minneapolis Center
08:02AM 44.4292 -86.2497 276° West 403 464 36,000  Level Minneapolis Center
08:03AM 44.4406 -86.4061 276° West 402 463 36,000  Level Minneapolis Center
08:04AM 44.4517 -86.5622 276° West 403 464 36,000  Level Minneapolis Center
08:05AM 44.4622 -86.7186 275° West 402 463 36,000  Level Minneapolis Center
08:06AM 44.4731 -86.8731 276° West 400 460 36,000  Level Minneapolis Center
08:07AM 44.4831 -87.0281 275° West 400 460 36,000  Level Minneapolis Center
08:09AM 44.4933 -87.1847 275° West 402 463 36,000  Level Minneapolis Center
08:10AM 44.5058 -87.3725 275° West 403 464 36,000  Level Minneapolis Center
08:11AM 44.5178 -87.5600 275° West 403 464 36,000  Level Minneapolis Center
08:12AM 44.5272 -87.7150 275° West 400 460 36,000  Level Minneapolis Center
08:13AM 44.5361 -87.8697 275° West 400 460 36,000  Level Minneapolis Center
08:14AM 44.5422 -88.0200 273° West 398 458 36,000  Level Minneapolis Center
08:15AM 44.5364 -88.1811 267° West 411 473 36,000  Level Minneapolis Center
08:16AM 44.5297 -88.3681 267° West 412 474 36,000  Level Minneapolis Center
08:17AM 44.5247 -88.5289 268° West 414 476 36,000  Level Minneapolis Center
08:18AM 44.5450 -88.6836 280° West 407 468 36,000  Level Minneapolis Center
08:19AM 44.5708 -88.8656 281° West 406 467 36,000  Level Minneapolis Center
08:20AM 44.5914 -89.0250 280° West 412 474 36,000  Level Minneapolis Center
08:21AM 44.6147 -89.2086 280° West 412 474 36,000 -300 Level Minneapolis Center
08:22AM 44.6403 -89.3911 281° West 410 472 35,400 -780 Descending Minneapolis Center
08:23AM 44.6617 -89.5497 281° West 414 476 34,400 -1,020 Descending Minneapolis Center
08:24AM 44.6836 -89.7161 281° West 430 495 33,400 -1,080 Descending Minneapolis Center
08:26AM 44.7083 -89.9131 280° West 438 504 32,300 -720 Descending Minneapolis Center
08:27AM 44.7228 -90.0258 280° West 439 505 32,000 -180 Descending Minneapolis Center
08:28AM 44.7508 -90.2511 280° West 440 506 32,000  Level Minneapolis Center
08:29AM 44.7719 -90.4239 280° West 446 513 32,000  Level Minneapolis Center
08:30AM 44.7986 -90.6006 282° West 443 510 32,000  Level Minneapolis Center
08:31AM 44.8261 -90.7697 283° West 446 513 32,000  Level Minneapolis Center
08:32AM 44.8511 -90.9406 282° West 447 514 32,000  Level Minneapolis Center
08:33AM 44.8769 -91.1108 282° West 447 514 32,000 -1,200 Level Minneapolis Center
08:34AM 44.9075 -91.3178 282° West 448 516 29,400 -2,880 Descending Minneapolis Center
08:35AM 44.9375 -91.5208 282° West 447 514 25,500 -3,360 Descending Minneapolis Center
08:36AM 44.9614 -91.6786 282° West 427 491 22,500 -2,880 Descending Minneapolis Center
08:37AM 44.9836 -91.8275 282° West 396 456 19,600 -2,760 Descending Minneapolis Center
08:38AM 45.0050 -91.9703 282° West 377 434 16,900 -2,580 Descending Minneapolis Center
08:39AM 45.0239 -92.1064 281° West 358 412 14,300 -2,760 Descending Minneapolis Center
08:40AM 45.0464 -92.2714 281° West 359 413 11,200 -1,680 Descending Minneapolis Center
08:41AM 45.0308 -92.4044 261° West 348 400 10,900 -660 Descending Minneapolis Center
08:42AM 44.9911 -92.5103 242° Southwest 301 346 9,900 -1,200 Descending Minneapolis Center
08:43AM 44.9453 -92.5972 233° Southwest 280 322 8,500 -1,200 Descending Minneapolis Center
08:44AM 44.9000 -92.6847 234° Southwest 277 319 7,500 -900 Descending Minneapolis Center
08:45AM 44.8569 -92.7733 236° Southwest 275 316 6,700 -1,560 Descending Minneapolis Center
08:46AM 44.8214 -92.8867 246° West 265 305 4,300 -1,800 Descending Minneapolis Center
08:47AM 44.8242 -92.9789 272° West 239 275 3,000 -1,260 Descending Minneapolis Center